Theta_e
293 291 286 290 292 291 290 289 287 288 297 294 293 294 299 301 299 293 296 306 312 313 316 319 321 319 314 315 322 324 324 322 323 319 320 320 322 319 320 320 321 322 322 322
286 286 293 295 293 290 287 285 286 292 298 297 297 296 299 299 297 292 293 295 299 306 308 312 317 321 320 314 316 321 324 322 324 323 319 320 318 319 321 323 322 323 323 324
283 288 295 293 292 290 286 285 286 290 294 294 295 289 291 296 298 297 295 295 297 300 302 310 314 314 318 318 317 319 320 320 322 322 322 322 321 321 320 322 324 326 328 329
284 291 290 290 289 291 286 292 289 290 290 286 289 281 286 290 292 295 296 293 295 297 302 303 307 308 309 312 316 320 320 321 321 322 322 322 321 318 321 323 326 329 330 330
283 286 285 287 289 292 288 292 290 290 287 287 286 283 285 290 288 291 295 294 294 297 299 301 303 304 306 308 310 314 316 316 317 319 320 320 321 323 324 324 324 325 322 322
285 289 287 287 292 292 293 290 289 288 286 279 285 284 282 287 289 291 293 294 295 296 297 298 302 303 302 304 307 309 312 311 313 314 315 317 320 322 320 319 318 316 316 317
284 283 287 289 286 290 290 285 276 275 273 278 285 282 285 289 291 291 291 293 295 295 297 297 298 298 301 301 301 303 303 304 306 307 307 307 310 312 313 315 315 313 311 312
279 275 284 289 285 284 285 284 278 271 273 278 283 278 283 291 294 295 294 294 295 295 295 296 296 297 297 298 299 300 300 300 302 303 303 304 305 305 305 306 307 308 308 307
281 278 287 287 288 286 284 281 286 280 276 277 277 281 287 292 291 290 291 293 294 296 296 295 297 297 297 297 297 298 299 299 300 301 301 302 303 304 304 305 305 304 304 305
287 279 284 287 287 286 285 287 279 278 270 270 277 277 279 284 286 288 289 289 290 292 293 296 297 298 297 297 297 297 297 297 297 298 299 299 300 302 303 303 302 302 302 302
288 284 281 283 282 280 282 281 282 281 279 274 273 275 282 285 286 286 288 290 290 291 291 293 294 296 296 297 296 296 296 296 296 296 296 297 298 298 299 299 299 299 298 298
288 283 274 278 284 285 284 281 281 275 275 277 277 277 287 287 288 288 288 289 289 289 289 291 291 293 293 294 295 295 295 294 295 295 295 294 295 296 296 296 296 297 296 296
289 276 266 272 279 283 282 284 283 282 281 277 273 276 287 286 286 287 288 287 287 287 288 288 290 290 291 291 292 293 294 294 295 295 294 294 294 294 294 295 295 295 294 294
290 280 275 271 276 280 279 282 283 281 274 278 277 277 281 283 284 285 287 286 286 287 287 287 288 288 289 290 290 291 292 293 294 294 294 294 293 294 294 294 294 294 293 292
284 274 276 278 279 279 280 281 282 280 280 276 278 278 282 283 282 283 286 285 285 286 287 287 288 288 288 289 289 290 290 291 292 292 293 293 293 293 293 293 293 292 291 290
282 272 274 270 277 276 275 279 280 281 282 280 280 279 285 283 283 283 284 284 284 285 286 287 288 288 288 288 288 289 289 289 290 291 291 292 292 292 291 291 291 290 289 288
278 270 265 265 272 270 267 273 278 278 279 281 279 282 283 280 283 283 283 283 284 284 285 286 287 287 287 287 287 287 287 288 289 289 291 291 291 291 290 290 290 289 288 287
275 267 261 263 263 261 275 275 277 277 278 281 281 282 281 280 283 284 283 283 283 285 285 286 286 286 287 287 286 285 286 286 287 287 288 289 289 290 289 289 289 288 288 287
280 275 261 264 256 268 275 276 276 277 275 279 280 279 280 282 281 280 285 285 285 285 286 286 286 286 286 285 285 284 285 285 285 285 285 285 286 286 286 286 286 286 286 285
279 278 269 260 259 259 274 279 280 279 271 278 280 280 281 281 277 277 282 283 285 285 285 286 286 285 284 285 283 283 284 283 284 283 283 284 285 285 285 285 285 285 285 285
266 265 264 265 260 267 276 279 280 269 273 280 282 281 280 279 280 282 283 284 284 285 285 285 284 284 284 284 283 283 283 283 283 283 283 283 284 285 285 284 284 284 284 284
272 265 262 260 260 265 279 279 276 279 280 282 281 281 282 282 282 283 284 284 284 284 284 284 284 284 284 284 283 282 282 283 282 282 282 279 279 282 283 281 279 281 282 281
270 274 271 272 273 280 280 280 282 282 282 282 283 283 283 282 282 282 283 283 284 284 284 283 283 283 283 283 282 280 282 282 279 276 275 276 277 279 280 281 281 280 281 283
275 277 274 276 279 279 281 282 283 283 283 283 283 283 283 282 282 283 283 283 283 283 283 282 282 282 282 281 280 280 280 276 274 275 274 275 276 277 277 279 280 280 280 281
276 278 275 275 279 279 281 282 283 283 283 282 282 282 283 283 283 283 282 283 283 283 282 280 279 279 279 276 277 275 275 272 274 273 273 274 275 274 275 278 277 278 278 282
278 277 276 274 281 281 281 283 284 282 283 283 283 282 283 283 283 283 282 283 282 281 278 276 276 275 278 276 276 276 272 273 273 275 275 275 274 273 274 274 277 283 285 286
Wind_Speed
2 2 9 16 9 13 9 9 8 10 6 11 15 10 6 15 15 17 13 7 4 5 4 4 6 6 6 6 7 8 9 7 7 3 3 2 4 3 3 4 6 6 6 7
5 2 5 12 10 5 6 6 8 9 8 3 10 11 9 12 5 10 10 11 8 5 6 7 4 6 6 6 7 7 7 6 7 5 3 3 3 3 3 4 5 6 6 7
1 5 8 8 8 11 3 6 6 4 11 7 3 4 7 6 7 11 16 12 10 10 12 10 10 10 7 6 3 3 4 4 4 4 2 2 2 0 2 3 3 7 9 8
4 5 5 5 7 11 6 14 9 6 3 4 4 3 4 6 11 12 15 17 12 14 6 9 10 11 10 9 9 3 4 4 3 5 3 4 3 3 2 3 3 3 5 4
5 7 6 6 6 11 5 13 3 5 6 4 8 3 3 3 7 9 15 14 11 6 8 8 7 9 8 10 9 8 6 5 5 3 2 3 4 3 3 2 5 3 1 3
4 4 2 3 0 3 6 5 1 2 2 5 7 3 3 4 5 2 10 17 13 10 6 7 4 6 7 9 6 6 8 8 5 3 3 1 4 4 3 3 2 1 2 2
7 5 6 2 3 4 6 4 4 6 7 3 8 5 5 5 6 3 3 4 12 10 9 7 6 9 6 8 7 5 5 4 1 2 2 2 2 3 3 3 1 4 1 0
4 7 6 7 2 3 4 4 3 1 3 2 7 6 3 2 1 3 3 3 7 11 8 8 8 7 7 6 5 4 2 2 6 5 4 4 2 1 1 0 1 1 1 2
5 4 5 2 3 2 5 5 2 5 1 3 3 2 1 4 1 4 3 3 5 8 8 8 8 8 6 5 5 3 5 6 7 5 4 4 4 4 3 3 4 3 3 2
2 5 3 5 4 3 4 1 3 4 3 3 3 4 3 6 5 6 7 7 7 5 4 7 5 5 5 5 6 6 6 4 2 3 4 4 5 5 5 5 5 3 4 4
2 1 7 2 5 2 7 4 5 4 3 3 3 2 3 4 5 6 6 7 7 7 7 6 6 4 2 2 3 4 4 4 3 3 2 4 4 4 5 5 4 4 4 4
2 2 3 2 3 2 1 2 1 4 2 2 3 2 2 3 5 6 6 6 6 6 6 8 8 9 10 10 9 7 6 5 4 3 4 4 4 4 4 5 5 4 5 5
2 2 4 8 7 5 5 3 2 2 2 1 5 4 1 5 5 5 5 5 6 6 8 7 9 9 9 9 8 8 7 6 6 5 3 3 3 3 4 4 5 5 6 5
1 2 4 5 3 1 4 4 3 1 3 2 2 5 3 3 6 4 5 5 5 5 6 6 7 7 7 7 8 9 8 6 6 4 3 3 2 2 4 5 5 5 5 5
2 2 2 1 1 1 2 3 3 1 2 4 2 5 6 2 3 3 4 4 6 7 8 7 7 8 8 9 9 8 7 8 7 6 4 3 2 0 2 4 5 6 6 5
2 3 1 3 3 4 3 4 4 2 1 1 2 2 2 3 5 5 4 5 6 6 7 7 7 8 8 8 9 9 9 9 6 7 7 5 2 2 3 3 2 3 4 6
2 4 4 5 4 3 6 6 6 2 1 4 4 3 2 3 5 4 4 4 4 3 4 6 6 6 7 7 6 8 8 7 8 7 6 6 4 2 3 4 5 4 3 4
5 5 3 3 5 2 5 1 1 3 4 4 1 4 2 3 2 4 3 3 2 4 6 6 5 5 6 6 6 6 6 6 6 6 6 6 6 4 2 4 4 4 4 5
2 4 3 4 3 7 4 4 6 6 1 4 5 1 4 5 3 0 4 3 3 3 3 4 4 4 6 7 6 7 7 6 7 7 7 7 6 5 2 3 5 3 5 4
3 4 5 2 6 6 5 1 1 2 2 3 4 4 6 4 3 4 4 3 6 5 4 5 4 3 4 4 5 6 7 7 7 7 7 6 6 3 3 4 5 3 3 4
1 3 6 2 2 9 8 4 2 8 6 2 4 5 5 3 5 4 2 5 3 4 7 7 5 6 7 6 4 6 6 6 5 6 6 6 6 4 0 3 2 4 5 6
8 7 4 3 4 9 6 5 5 4 1 5 4 5 4 4 2 5 7 8 8 8 6 5 6 7 7 5 3 6 7 4 4 4 4 4 4 4 1 4 2 4 5 5
3 7 7 9 8 4 5 1 3 4 5 3 3 2 1 3 4 5 6 7 7 8 7 4 5 7 7 5 5 7 5 3 2 1 3 3 1 2 1 4 5 4 5 6
5 4 3 3 5 7 5 2 4 5 5 3 3 2 4 4 5 7 7 7 6 6 7 3 5 8 9 4 5 8 5 2 1 2 3 3 2 2 3 1 2 4 4 4
5 7 7 4 5 3 5 7 5 5 5 3 3 3 5 4 7 6 6 7 7 7 6 3 5 6 9 5 7 6 5 4 3 3 3 3 2 1 1 1 1 1 3 2
6 8 7 7 8 6 4 4 6 6 6 7 5 4 4 5 8 7 8 8 7 7 4 4 6 5 9 6 7 7 6 6 5 5 4 4 3 2 2 2 3 4 6 6
Wind_Direction
282 6 343 324 266 255 279 283 275 295 242 171 192 188 39 46 10 13 25 312 37 36 357 152 163 160 161 156 164 170 171 171 158 141 166 173 212 209 217 214 220 215 215 216
7 314 327 336 332 6 342 286 278 232 166 123 138 148 73 66 349 349 39 15 356 8 9 18 149 153 165 179 185 172 199 173 183 184 164 160 161 209 196 206 217 218 220 222
333 276 316 333 343 349 318 352 317 87 103 49 85 41 49 35 62 339 17 25 13 26 25 18 44 44 52 61 87 142 206 179 167 161 120 116 118 183 164 210 220 222 220 221
255 301 308 16 3 344 347 353 347 13 61 118 315 115 47 10 55 349 360 4 14 4 24 28 34 45 32 26 33 71 131 139 126 174 171 174 188 213 216 236 234 223 179 222
282 327 340 49 359 350 330 326 1 44 61 96 358 83 1 57 75 27 348 335 19 272 37 37 32 49 37 41 26 15 2 73 47 52 43 226 235 245 247 259 281 264 199 97
260 282 343 307 224 311 296 352 300 79 103 52 355 4 14 42 68 77 360 348 341 353 38 50 339 70 41 38 27 10 7 342 8 3 8 263 291 285 231 232 235 277 305 355
339 327 324 12 324 309 9 2 342 12 26 42 342 35 15 358 357 13 5 335 336 357 13 26 11 65 60 42 13 18 7 353 288 44 52 34 318 296 289 296 276 252 247 356
19 342 358 336 24 318 357 39 80 53 14 356 9 11 45 72 204 38 15 355 357 15 10 3 8 34 63 89 63 49 351 359 18 29 5 9 352 165 99 30 108 81 82 83
3 285 321 339 314 17 327 50 188 113 18 52 349 281 207 167 31 50 51 43 41 25 5 11 17 8 12 40 69 74 47 22 32 24 16 17 15 33 47 61 68 88 101 103
72 302 293 297 6 14 83 216 43 7 70 64 360 30 28 29 39 41 31 25 29 41 25 27 15 11 3 13 355 40 68 73 31 48 48 39 20 22 37 47 47 60 61 63
69 94 298 27 37 348 345 17 49 114 100 139 127 323 302 53 40 41 29 30 25 25 22 25 29 29 16 39 42 62 60 66 67 38 53 63 59 70 53 48 38 55 69 60
30 94 260 252 306 267 232 1 23 101 275 64 97 278 37 51 68 73 36 25 26 33 19 17 15 18 23 21 17 16 12 19 23 61 67 55 35 20 66 96 90 59 54 50
13 344 10 349 1 360 37 357 349 61 72 3 118 223 121 55 72 57 73 43 35 26 22 15 22 21 17 16 15 13 13 8 7 8 41 74 84 65 59 58 57 65 73 63
344 83 156 179 183 331 319 351 354 56 86 179 195 163 204 99 124 94 83 62 42 34 21 15 17 10 8 5 7 9 9 9 357 347 341 340 9 108 120 105 90 86 89 90
53 150 26 187 32 46 283 297 333 76 170 137 186 167 194 180 142 79 83 59 49 27 18 8 3 356 358 3 3 0 358 353 347 347 338 321 328 319 132 132 132 125 109 104
19 150 51 315 359 28 297 274 280 277 225 104 94 293 144 117 118 91 98 63 43 24 7 356 355 357 358 352 350 347 349 347 342 343 333 316 272 170 158 131 103 97 129 136
61 118 67 270 333 357 345 227 198 201 211 142 165 226 126 54 99 144 140 112 89 31 353 344 339 333 332 339 337 343 333 326 341 343 343 340 312 252 192 162 145 129 86 34
123 93 76 228 11 11 239 256 108 251 264 206 142 136 134 164 119 138 176 138 33 342 334 326 313 319 325 326 332 327 334 342 344 348 346 350 340 300 216 168 157 138 126 126
59 126 80 125 173 288 302 184 154 173 217 191 207 169 132 136 99 10 210 215 236 258 270 263 280 294 310 318 331 335 337 344 351 349 337 334 337 321 244 187 171 144 132 127
50 59 111 79 127 215 257 185 142 119 329 188 190 164 145 137 90 257 269 305 302 289 269 283 288 257 284 310 334 336 333 340 344 339 326 322 324 302 226 190 158 135 133 135
63 11 149 165 188 287 250 222 42 83 225 138 122 133 143 147 193 220 298 301 283 279 300 304 311 298 298 312 332 319 323 321 314 318 323 334 336 333 266 136 135 137 128 117
167 139 192 89 81 274 177 97 150 202 158 134 130 161 189 214 272 285 293 289 300 299 301 298 290 288 298 293 287 293 298 296 309 321 333 346 346 335 96 113 67 92 111 104
224 187 178 178 210 242 197 105 162 162 150 168 152 182 210 255 259 297 276 291 289 289 288 271 257 286 285 274 230 268 262 286 301 351 317 309 3 15 87 136 143 133 141 148
241 173 179 104 235 227 231 216 232 201 194 182 217 214 183 234 274 271 283 287 287 284 282 262 278 283 284 266 250 231 267 291 196 277 289 312 324 347 324 310 157 148 153 155
192 140 171 266 275 311 253 219 216 213 222 242 241 211 221 217 266 251 269 271 268 267 277 249 250 263 268 267 265 238 232 189 228 243 242 242 220 236 254 264 258 297 297 226
192 177 170 215 202 166 186 153 167 187 205 211 202 245 239 210 243 241 249 246 245 258 237 248 248 246 270 272 271 257 205 188 188 242 245 227 209 213 203 222 282 278 262 280